sat.trackr.live / text

‹ back to catalog

HULIANWANG DIGUI-110

NORAD 66920 · 2025-285F

PAYLOAD ACTIVE UNKNOWN

§ Identity

Operator
Country
PRC
Launch date
2025-12-06
Launch site
WSC
Launch vehicle
Mass (kg)
RCS (m²)

External: N2YO · Heavens-Above · Gunter

§ Orbital elements

Epoch: 2026-09-20T23:42:39.708576Z

Period
108.33 min
Inclination
50.0100°
Eccentricity
0.0000052
Mean motion
13.29329778 rev/d
Perigee alt
1,149.3 km
Apogee alt
1,149.3 km
Semi-major
7,527.4 km
B*
4.9509e-5
RAAN
162.3941°
Arg perigee
313.8347°
Mean anomaly
46.2520°
Rev number
3,880

§ Raw data

HULIANWANG DIGUI-1101 66920U 25285F   26263.98795959 -.00000101  00000+0  49509-4 0  99982 66920  50.0100 162.3941 0000052 313.8347  46.2520 13.29329778 38802

JSON: /api/v1/satellites/66920 · /tle

For live sub-satellite position, see the globe view (requires WebGL).

§ Visibility from observer

Set your observer location to see the next 7 days of passes ≥ 10°. The values pass through the URL so the page stays shareable.

No JS? Fill the form by hand. The geolocation button needs JavaScript.